Skip Page Navigation
NASA JPL Caltech
NASA Logo - Jet Propulsion Laboratory + View the NASA Portal
+ Center for Near-Earth Object Studies
JPL Home Earth Solar System Stars & Galaxies Technology
JPL Solar System Dynamics
BODIES ORBITS EPHEMERIDES TOOLS PHYSICAL DATA DISCOVERY FAQ SITE MAP
JPL Small-Body Database Browser
Search: [ help ]  
173239 (1999 FJ61)
Classification: Main-belt Asteroid          SPK-ID: 2173239
Ephemeris | Orbit Diagram | Orbital Elements | Mission Design | Physical Parameters | Discovery Circumstances | Close-Approach Data ]

[ show orbit diagram ]
Orbital Elements at Epoch 2459200.5 (2020-Dec-17.0) TDB
Reference: JPL 19 (heliocentric ecliptic J2000)
 Element Value Uncertainty (1-sigma)   Units 
e .1575653081626872 4.4199e-08  
a 2.804640368985517 1.8595e-08 au
q 2.362726344960801 1.2428e-07 au
i 7.24757718328762 5.3828e-06 deg
node 348.4589263238497 2.9577e-05 deg
peri 216.1166401889058 3.2773e-05 deg
M 207.9417534845145 1.595e-05 deg
tp 2459925.138952220506
(2022-Dec-11.63895222)
7.9802e-05 TDB
period 1715.592733556974
4.70
1.7062e-05
4.671e-08
d
yr
n .2098400121184965 2.0869e-09 deg/d
Q 3.246554393010233 2.1525e-08 au
  Orbit Determination Parameters
   # obs. used (total)      430  
   data-arc span      7960 days (21.79 yr)  
   first obs. used      1999-03-22  
   last obs. used      2021-01-05  
   planetary ephem.      DE441  
   SB-pert. ephem.      SB441-N16  
   condition code      0  
   norm. resid. RMS      .52977  
   source      ORB  
   producer      Otto Matic  
   solution date      2021-Apr-13 20:56:13  

Additional Information
 Earth MOID = 1.36341 au 
 Jupiter MOID = 1.74457 au 
 T_jup = 3.294 
[ show covariance matrix ]

Ephemeris | Orbit Diagram | Orbital Elements | Mission Design | Physical Parameters | Discovery Circumstances | Close-Approach Data ]

Physical Parameter Table
Parameter Symbol Value Units Sigma Reference Notes
absolute magnitude H 15.83   n/a E2021B55  

173239 (1999 FJ61)          Discovered 1999-Mar-22 by LONEOS at Anderson Mesa
Reference: 20080122/Numbers.arcLast Updated: 2008-01-28

[ show close-approach data ]
Alternate Designations
 1999 FJ61 = 2003 AL85 
Ephemeris | Orbit Diagram | Orbital Elements | Mission Design | Physical Parameters | Discovery Circumstances | Close-Approach Data ]
ABOUT SSD CREDITS/AWARDS PRIVACY/COPYRIGHT GLOSSARY LINKS
FirstGov 2021-Apr-20 11:43 UT
(server date/time)  
NASA Home Page
Site Manager:   Ryan S. Park
Webmaster  Alan B. Chamberlin